Regional Weather Roundup
Issued by NWS

Home | Current Version | Previous Version | Text Only | Print | Product List | Glossary Off
Versions: 1 2 3 4 5 6 7 8 9 10 11 12 13 14 15 16 17 18 19 20 21 22 23 24 25 26 27 28 29 30 31 32 33 34 35 36 37 38 39 40 41 42 43 44 45 46 47 48 49 50

000
ASUS43 KBIS 060901
RWRND

NORTH DAKOTA REGIONAL WEATHER ROUNDUP
NATIONAL WEATHER SERVICE BISMARCK ND
300 AM CST FRI MAR 06 2015

NOTE: "FAIR" INDICATES FEW OR NO CLOUDS BELOW 12,000 FEET WITH NO
SIGNIFICANT WEATHER AND/OR OBSTRUCTIONS TO VISIBILITY.


NDZ001>003-009>011-017-061000-
NORTHWEST NORTH DAKOTA

CITY           SKY/WX    TMP DP  RH WIND       PRES   REMARKS
WILLISTON      CLEAR     23  16  74 NE5       30.06R WCI  17
MINOT          CLEAR     22  14  71 W16       30.01R WCI   8
MINOT AFB      CLEAR     18  16  91 W14       30.01R WCI   4
$$

NDZ018>021-031>035-040>046-061000-
SOUTHWEST NORTH DAKOTA

CITY           SKY/WX    TMP DP  RH WIND       PRES   REMARKS
BISMARCK       CLEAR     22  14  71 W5        30.05R WCI  16
DICKINSON      CLEAR     21  12  68 W8        30.02R WCI  11
GARRISON         N/A     19  13  77 NW9       30.02R WCI   8
HETTINGER ARPT CLEAR     24  14  65 NW10      30.06R WCI  14
$$

NDZ004>008-012>016-024-026-027-054-061000-
NORTHEAST NORTH DAKOTA

CITY           SKY/WX    TMP DP  RH WIND       PRES   REMARKS
GRAND FORKS    CLEAR     12   6  77 NW10      29.96R WCI  -1
GRND FRKS AFB  CLEAR     21  11  66 NW13      29.95S WCI   8
DEVILS LAKE    CLEAR     16   9  73 W12       29.97R WCI   3
$$

NDZ022-023-025-028>030-036>039-047>053-061000-
SOUTHEAST NORTH DAKOTA

CITY           SKY/WX    TMP DP  RH WIND       PRES   REMARKS
FARGO          CLEAR     13   6  74 S8        29.98S WCI   2
JAMESTOWN      CLEAR     22  11  62 W14       29.97R WCI   9
$$




USA.gov is the U.S. government's official web portal to all federal, state and local government web resources and services.